Location: Kielce
(50.8661°N, 20.6286°E)
Time: 11:53:48
(UTC+01:00)

ISS - Visible Passes

Search period start: 24 March 2019 00:00
Search period end: 03 April 2019 01:00
Orbit: 408 x 411 km, 51.6° (Epoch: 24 March)

Date Brightness Start Highest point End Pass type
(mag) Time Alt. Az. Time Alt. Az. Time Alt. Az.
24 Mar -3.6 19:33:17 10° SW 19:36:31 52° SSE 19:37:09 44° ESE visible
24 Mar -0.6 21:09:46 10° W 21:09:56 11° W 21:09:56 11° W visible
25 Mar -3.1 18:42:53 10° SW 18:45:57 36° SSE 18:48:51 11° E visible
25 Mar -3.0 20:19:05 10° W 20:21:38 50° W 20:21:38 50° W visible
26 Mar -3.9 19:28:25 10° WSW 19:31:43 81° SSE 19:33:13 30° E visible
26 Mar -1.1 21:05:04 10° W 21:05:59 17° W 21:05:59 17° W visible
27 Mar -3.7 18:37:48 10° WSW 18:41:04 62° SSE 18:44:21 10° ENE visible
27 Mar -3.6 20:14:22 10° W 20:17:27 70° NW 20:17:27 70° NW visible
28 Mar -3.8 19:23:38 10° W 19:26:57 79° N 19:28:51 23° ENE visible
28 Mar -1.4 21:00:18 10° WNW 21:01:37 22° W 21:01:37 22° W visible
29 Mar -3.8 18:32:55 10° WSW 18:36:14 89° ENE 18:39:33 10° ENE visible
29 Mar -3.9 20:09:35 10° W 20:12:54 82° N 20:12:58 81° NNE visible
30 Mar -3.7 19:18:51 10° W 19:22:09 76° N 19:24:16 21° E visible
30 Mar -1.7 20:55:28 10° W 20:57:02 25° W 20:57:02 25° W visible
31 Mar -4.0 21:04:44 10° WNW 21:08:02 76° SSW 21:08:18 69° SSE visible
01 Apr -3.8 20:13:59 10° W 20:17:19 88° NNE 20:19:35 19° E visible
01 Apr -1.7 21:50:42 10° W 21:52:20 23° WSW 21:52:20 23° WSW visible
02 Apr -3.3 20:59:51 10° W 21:03:03 47° SSW 21:03:36 42° S visible
